Starlink 1752

operational
NORAD ID: 46338 Int'l Des: 2020-062 Owner: SPXS Country: US Constellation: starlink
LEOCIRCULARSTARLINK_TYPE

Über Starlink 1752

Beschreibung wird geladen...

Live-Position

3D-Globus wird geladen...

Nächste Überflüge

Höhenverlauf

Altitude vs Time

uPlot chart will show altitude changes over time

Zweizeiliger Elementsatz

1 46338U 20062P 26034.66668981 .00280604 00000-0 20323-2 0 9991
2 46338 53.0439 138.1188 0006408 196.5915 268.5969 15.72056101 5888
Epoch: 3. Feb. 2026 • Age: 11 hours

Aktueller Status

Höhe 369.7 km
Geschwindigkeit 7.69 km/s
Subsatellitenpunkt -52.09°S, 123.76°W
Startdatum 3. Sept. 2020
Alter 5.4 years
Typ internet

Technische Details

Klassifizierung Payload
Masse 260.00 kg
Trockenmasse 248.00 kg
Gesamtmasse 260.00 kg
Länge 0.20 m
Durchmesser 2.80 m
Spannweite 9.00 m
Form Box + pan
Hersteller SPXS
Bus-Typ Starlink
Phasenstatus In Orbit
Besitzer/Staat SPXS/US

Große Konstellationen

Loading constellations...